User: anonymous   Login
Location: Dover
(39.1580°N, 75.5250°W)
Time: 15:08:40
(UTC-04:00)
Language:

SeaSat 1 - Orbit

View from above orbital plane
View from above orbital plane
View from above satellite
View from above satellite

Ground track
Ground track

The orbit data is extracted from the following two-line orbital elements,

1 10967U 78064A   15141.76755787  .00000220  00000-0  10545-3 0  9994
2 10967 107.9961 157.5552 0001249 244.6183 115.4832 14.43386752937301
Epoch (UTC): 21 May 2015 18:25:17
Eccentricity: 0.0001249
inclination: 107.9961°
perigee height: 746 km
apogee height: 748 km
right ascension of ascending node: 157.5552°
argument of perigee: 244.6183°
revolutions per day: 14.43386752
mean anomaly at epoch: 115.4832°
orbit number at epoch: 93730

The dashed part of the orbit path shows where the satellite is in the earth's shadow,  

DLR